User: anonymous   Login
Location: Cambridge (historical)
(38.6883°N, 119.0140°W)
Time: 21:19:26
(UTC+00:00)
Language:

FALCONSAT 3 - Orbit

View from above orbital plane
View from above orbital plane
View from above satellite
View from above satellite

Ground track
Ground track

The orbit data is extracted from the following two-line orbital elements,

1 30776U 07006E   21262.28915147  .00005171  00000-0  12013-3 0  9990
2 30776  35.4331 216.7384 0001339   3.6886 356.3852 15.41789334807598
Epoch (UTC): 19 September 2021 06:56:22
Eccentricity: 0.0001339
inclination: 35.4331°
perigee height: 440 km
apogee height: 442 km
right ascension of ascending node: 216.7384°
argument of perigee: 3.6886°
revolutions per day: 15.41789334
mean anomaly at epoch: 356.3852°
orbit number at epoch: 80759

The dashed part of the orbit path shows where the satellite is in the earth's shadow,  

DLR